TimeEST,TemperatureF,Dew PointF,Humidity,Sea Level PressureIn,VisibilityMPH,Wind Direction,Wind SpeedMPH,Gust SpeedMPH,PrecipitationIn,Events,Conditions,WindDirDegrees,DateUTC
12:51 AM,37.9,37.0,97,30.06,2.0,North,6.9,-,N/A,Rain,Light Rain,360,2012-12-10 05:51:00
1:23 AM,39.2,37.4,93,30.03,2.0,North,5.8,-,N/A,Rain,Light Rain,360,2012-12-10 06:23:00
1:51 AM,39.0,37.0,93,30.02,2.0,North,5.8,-,N/A,Rain,Light Rain,10,2012-12-10 06:51:00
1:57 AM,39.2,37.4,93,30.02,5.0,North,5.8,-,N/A,Rain,Light Rain,360,2012-12-10 06:57:00
2:51 AM,39.0,37.9,96,29.99,3.0,North,5.8,-,N/A,Rain,Light Rain,360,2012-12-10 07:51:00
3:51 AM,39.0,37.9,96,29.94,3.0,NNW,6.9,-,N/A,Rain,Light Rain,340,2012-12-10 08:51:00
4:51 AM,39.9,37.9,93,29.89,3.0,North,5.8,-,N/A,,Light Drizzle,360,2012-12-10 09:51:00
5:09 AM,39.2,37.4,93,29.87,2.0,North,5.8,-,N/A,Rain,Light Rain,360,2012-12-10 10:09:00
5:36 AM,39.2,37.4,93,29.86,3.0,North,5.8,-,N/A,,Light Drizzle,350,2012-12-10 10:36:00
5:51 AM,39.9,37.9,93,29.86,2.5,North,4.6,-,N/A,,Light Drizzle,350,2012-12-10 10:51:00
6:24 AM,39.2,37.4,93,29.85,2.0,NNW,3.5,-,N/A,,Light Drizzle,330,2012-12-10 11:24:00
6:51 AM,39.9,37.9,93,29.84,2.0,Calm,Calm,-,N/A,,Light Drizzle,0,2012-12-10 11:51:00
7:51 AM,39.9,37.9,93,29.82,2.0,Calm,Calm,-,N/A,,Light Drizzle,0,2012-12-10 12:51:00
8:13 AM,39.2,37.4,93,29.82,1.0,NW,3.5,-,N/A,,Light Drizzle,320,2012-12-10 13:13:00
8:51 AM,39.2,39.2,100,29.80,1.0,Calm,Calm,-,N/A,,Light Drizzle,0,2012-12-10 13:51:00
9:51 AM,39.9,39.0,97,29.79,1.0,Calm,Calm,-,N/A,,Light Drizzle,0,2012-12-10 14:51:00
10:20 AM,41.0,39.2,93,29.77,0.8,Calm,Calm,-,N/A,,Light Drizzle,0,2012-12-10 15:20:00
10:51 AM,41.0,39.9,96,29.75,0.5,Calm,Calm,-,N/A,Fog,Light Drizzle,0,2012-12-10 15:51:00
11:51 AM,42.1,41.0,96,29.70,0.8,South,3.5,-,N/A,,Light Drizzle,180,2012-12-10 16:51:00
12:51 PM,44.1,43.0,96,29.66,0.8,Calm,Calm,-,N/A,,Overcast,0,2012-12-10 17:51:00
1:47 PM,46.4,44.6,93,29.63,0.1,South,4.6,-,N/A,,Overcast,180,2012-12-10 18:47:00
1:51 PM,46.0,45.0,96,29.63,0.1,South,3.5,-,N/A,,Overcast,170,2012-12-10 18:51:00
2:13 PM,46.4,46.4,100,29.60,0.2,SSE,8.1,-,N/A,,Overcast,150,2012-12-10 19:13:00
2:51 PM,46.4,46.4,100,29.60,0.2,South,6.9,-,N/A,,Overcast,170,2012-12-10 19:51:00
3:05 PM,46.4,46.4,100,29.60,0.1,SSW,3.5,-,N/A,,Overcast,200,2012-12-10 20:05:00
3:51 PM,48.0,46.9,96,29.59,0.1,South,6.9,-,N/A,,Overcast,190,2012-12-10 20:51:00
4:51 PM,48.9,48.0,97,29.57,0.1,Calm,Calm,-,N/A,Fog,Fog,0,2012-12-10 21:51:00
5:20 PM,48.2,46.4,93,29.56,0.1,Calm,Calm,-,N/A,Fog,Fog,0,2012-12-10 22:20:00
5:51 PM,48.0,46.9,96,29.55,0.1,NW,4.6,-,N/A,Fog,Fog,320,2012-12-10 22:51:00
6:51 PM,48.0,46.9,96,29.53,0.1,Calm,Calm,-,N/A,Fog,Fog,0,2012-12-10 23:51:00
7:10 PM,46.4,46.4,100,29.53,0.1,Calm,Calm,-,N/A,Fog,Fog,0,2012-12-11 00:10:00
7:45 PM,48.2,48.2,100,29.53,0.2,South,3.5,-,N/A,Fog,Fog,190,2012-12-11 00:45:00
7:51 PM,48.9,48.0,97,29.53,0.2,South,3.5,-,N/A,Fog,Fog,180,2012-12-11 00:51:00
8:05 PM,48.2,48.2,100,29.52,0.2,South,3.5,-,N/A,Fog,Fog,190,2012-12-11 01:05:00
8:46 PM,50.0,48.2,94,29.51,0.5,Calm,Calm,-,N/A,Fog,Fog,0,2012-12-11 01:46:00
8:51 PM,50.0,48.0,93,29.52,0.2,Calm,Calm,-,N/A,Fog,Fog,0,2012-12-11 01:51:00
9:12 PM,50.0,50.0,100,29.52,0.5,Calm,Calm,-,N/A,Fog,Fog,0,2012-12-11 02:12:00
9:43 PM,51.8,50.0,94,29.52,2.0,South,5.8,-,N/A,,Overcast,180,2012-12-11 02:43:00
9:51 PM,52.0,51.1,97,29.52,3.0,South,5.8,-,N/A,,Overcast,170,2012-12-11 02:51:00
10:51 PM,52.0,51.1,97,29.55,3.0,Calm,Calm,-,0.00,Rain,Light Rain,0,2012-12-11 03:51:00
10:58 PM,50.0,48.2,94,29.57,5.0,NW,25.3,31.1,0.00,Rain,Light Rain,310,2012-12-11 03:58:00
11:43 PM,46.4,41.0,81,29.58,10.0,NNW,5.8,-,0.00,,Overcast,330,2012-12-11 04:43:00
11:51 PM,46.9,41.0,80,29.60,10.0,NNW,5.8,-,0.00,,Overcast,330,2012-12-11 04:51:00